Weather Service Report


152 
ASUS44 KMEG 220010
RWRTN 
TENNESSEE HOURLY STATE WEATHER ROUNDUP
NATIONAL WEATHER SERVICE MEMPHIS TN
700 PM CDT SUN SEP 21 2014

TNZ002-004-019-021-049-052-054-088>092-220100-
WEST TENNESSEE
  
CITY           SKY/WX    TMP DP  RH WIND       PRES   REMARKS
MEMPHIS INTL   PTCLDY    82  66  58 N8        29.98R                  
NWS MEMPHIS      N/A     81 N/A N/A MISG        N/A                   
JACKSON        PTCLDY    77  64  64 N8        29.99R                  
DYERSBURG      CLEAR     73  50  43 N6        30.01R                  
UNION CITY     CLEAR     66  55  68 N6        30.00R                  
PARIS          CLEAR     72  46  40 VRB5      30.01R                  
HUNTINGDON     CLEAR     72  49  44 VRB5      30.00R                  
LEXINGTON      CLEAR     75  63  64 NW7       29.98R                  
SAVANNAH       CLEAR     79  70  73 NW3       29.97R                  
$$

TNZ008-025-027-028-033-062-065-066-220100-
NORTH MIDDLE TENNESSEE
  
CITY           SKY/WX    TMP DP  RH WIND       PRES   REMARKS
NASHVILLE      PTCLDY    78  55  44 N13G24    29.96R                  
DICKSON        CLEAR     73  52  46 N10       29.99R                  
PORTLAND       CLEAR     70  48  46 VRB5      29.97R                  
CLARKSVILLE    CLEAR     70  50  49 NW9       29.99R                  
LEBANON        CLEAR     76  52  43 N15       29.95R                  
SMYRNA         PTCLDY    79  60  51 N17       29.96R                  
MURFREESBORO   PTCLDY    80  61  52 NW8       29.94R                  
COOKEVILLE     PTCLDY    75  66  73 NW7       29.95R                  
LIVINGSTON     PTCLDY    72  59  63 N9        29.97R                  
GALLATIN       CLEAR     76  51  41 N8        29.97R                  
CROSSVILLE     PTCLDY    68  65  90 SW3       29.99R FOG              
$$

TNZ061-075-076-078-094-096-097-220100-
SOUTH MIDDLE TENNESSEE
  
CITY           SKY/WX    TMP DP  RH WIND       PRES   REMARKS
LEWISBURG      CLEAR     79  66  64 NW3       29.95R                  
FAYETTEVILLE   PTCLDY    75  66  73 N3        29.96S                  
TULLAHOMA      CLEAR     72  66  83 W5        29.98R                  
WINCHESTER     CLEAR     70  68  94 E3        29.97R                  
MCMINNVILLE    CLEAR     72  72 100 CALM      29.96R                  
COLUMBIA       CLEAR     79  64  61 NW3       29.95R                  
SHELBYVILLE    PTCLDY    79  68  69 W5        29.97R                  
$$

TNZ017-018-042-046-047-220100-
NORTHEAST TENNESSEE
  
CITY           SKY/WX    TMP DP  RH WIND       PRES   REMARKS
TRI CITIES     PTCLDY    68  65  90 SW3       29.92S                  
ELIZABETHTON   MOCLDY    63  63 100 CALM      29.93S FOG              
$$

TNZ012-013-036-069-073-074-220100-
CENTRAL EAST TENNESSEE
  
CITY           SKY/WX    TMP DP  RH WIND       PRES   REMARKS
KNOXVILLE      CLOUDY    72  69  90 S8        29.93R                  
OAK RIDGE      MOCLDY    74  69  85 CALM      29.94R                  
GATLINBURG     MOCLDY    72  66  83 SW6       29.93R                  
MORRISTOWN     CLEAR     72  66  83 W8        29.94R                  
$$

TNZ083-085-099-220100-
SOUTHEAST TENNESSEE
  
CITY           SKY/WX    TMP DP  RH WIND       PRES   REMARKS
CHATTANOOGA    MOCLDY    78  67  68 N6        29.94R                  
$$

SKY/WX REPORTED AS FAIR MEANS FEW OR NO CLOUDS BELOW
12 THOUSAND FEET.



155 
ASUS44 KMEG 220010
RWRMEG
MEMPHIS CWA HOURLY WEATHER ROUNDUP
NATIONAL WEATHER SERVICE MEMPHIS TN
700 PM CDT SUN SEP 21 2014

...WEST TENNESSEE...
  
CITY           SKY/WX    TMP DP  RH WIND       PRES   REMARKS
MEMPHIS INTL   PTCLDY    82  66  58 N8        29.98R                  
6HR MIN TEMP:  82; 6HR MAX TEMP:  91;                                

NWS MEMPHIS      N/A     81 N/A N/A MISG        N/A                   
JACKSON        PTCLDY    77  64  64 N8        29.99R                  
6HR MIN TEMP:  77; 6HR MAX TEMP:  87;                                

LEXINGTON      CLEAR     75  63  64 NW7       29.98R                  
SAVANNAH       CLEAR     79  70  73 NW3       29.97R                  
DYERSBURG      CLEAR     73  50  43 N6        30.01R                  
6HR MIN TEMP:  73; 6HR MAX TEMP:  84;                                

UNION CITY     CLEAR     66  55  68 N6        30.00R                  
PARIS          CLEAR     72  46  40 VRB5      30.01R                  
HUNTINGDON     CLEAR     72  49  44 VRB5      30.00R                  


...EASTERN ARKANSAS...
  
CITY           SKY/WX    TMP DP  RH WIND       PRES   REMARKS
JONESBORO      CLEAR     76  51  41 N5        30.01R                  
6HR MIN TEMP:  76; 6HR MAX TEMP:  89;                                

WEST MEMPHIS   PTCLDY    81  68  64 N8        29.97R                  
6HR MIN TEMP:  81; 6HR MAX TEMP:  90;                                

BATESVILLE     CLEAR     79  48  34 NW5       30.04R                  
6HR MIN TEMP:  79; 6HR MAX TEMP:  90;                                

NEWPORT        CLEAR     73  55  53 N17       30.04R                  
6HR MIN TEMP:  73; 6HR MAX TEMP:  90;                                

WALNUT RIDGE   CLEAR     73  48  40 N6        30.02R                  
6HR MIN TEMP:  73; 6HR MAX TEMP:  84;                                

BLYTHEVILLE    CLEAR     71  57  61 N8        30.01R                  
6HR MIN TEMP:  71; 6HR MAX TEMP:  89;                                

SEARCY         CLEAR     82  66  58 N10       30.02R                  
6HR MIN TEMP:  82; 6HR MAX TEMP:  88;                                

STUTTGART      MOCLDY    81  72  74 NW7       30.00S                  
6HR MIN TEMP:  81; 6HR MAX TEMP:  91;                                

PINE BLUFF     PTCLDY    81  69  67 NW8       30.00S                  
6HR MIN TEMP:  81; 6HR MAX TEMP:  91;                                

MONTICELLO     PTCLDY    83  71  67 CALM      29.98S                  
6HR MIN TEMP:  83; 6HR MAX TEMP:  93;                                



...NORTH MISSISSIPPI...
  
CITY           SKY/WX    TMP DP  RH WIND       PRES   REMARKS
TUPELO         MOCLDY    83  70  64 NW3       29.95S                  
6HR MIN TEMP:  83; 6HR MAX TEMP:  91;                                

OXFORD         MOCLDY    77  72  83 W3        29.98S                  
OLIVE BRANCH   PTCLDY    79  70  73 N7        29.98R                  
TUNICA         CLEAR     81  68  65 N9        29.98R                  
CLARKSDALE     PTCLDY    82  72  69 CALM      29.98R                  
CORINTH        CLEAR     79  68  69 N6        29.96R                  
GRENADA        CLOUDY    79  70  73 W3        29.97R                  
GREENWOOD      MOCLDY    79  71  76 CALM      29.95S                  
6HR MIN TEMP:  79; 6HR MAX TEMP:  93;                                

COLUMBUS       MOCLDY    82  69  66 W2        29.95F                  
6HR MIN TEMP:  82; 6HR MAX TEMP:  90;                                

STARKVILLE     FAIR      79  68  69 CALM      29.96S                  
GOLDEN TRIANGL MOCLDY    88  64  45 CALM      29.97R                  


...SOUTHEAST MISSOURI...
  
CITY           SKY/WX    TMP DP  RH WIND       PRES   REMARKS
WEST PLAINS    CLEAR     70  47  43 N6        30.10R                  
6HR MIN TEMP:  70; 6HR MAX TEMP:  81;                                

POPLAR BLUFF   CLEAR     73  49  42 N6        30.02R                  
6HR MIN TEMP:  73; 6HR MAX TEMP:  84;                                

CAPE GIRARDEAU CLEAR     70  51  51 N8        30.02R                  
6HR MIN TEMP:  70; 6HR MAX TEMP:  82;                                



...NORTHWEST ALABAMA...
  
CITY           SKY/WX    TMP DP  RH WIND       PRES   REMARKS
MUSCLE SHOALS  PTCLDY    80  68  66 NW3       29.97R                  
6HR MIN TEMP:  80; 6HR MAX TEMP:  88;                                



...MIDDLE TENNESSEE...
  
CITY           SKY/WX    TMP DP  RH WIND       PRES   REMARKS
NASHVILLE      PTCLDY    78  55  44 N13G24    29.96R                  
6HR MIN TEMP:  78; 6HR MAX TEMP:  88;                                

CLARKSVILLE    CLEAR     70  50  49 NW9       29.99R                  
6HR MIN TEMP:  70; 6HR MAX TEMP:  85;                                

DICKSON        CLEAR     73  52  46 N10       29.99R                  
COLUMBIA       CLEAR     79  64  61 NW3       29.95R                  
LEWISBURG      CLEAR     79  66  64 NW3       29.95R                  


...WESTERN KENTUCKY...
  
CITY           SKY/WX    TMP DP  RH WIND       PRES   REMARKS
PADUCAH        CLEAR     75  50  41 NW6       30.00R                  
6HR MIN TEMP:  75; 6HR MAX TEMP:  84;                                

FORT CAMPBELL  CLEAR     72  49  43 NW8       29.99R                  
6HR MIN TEMP:  72; 6HR MAX TEMP:  83;                                



...CENTRAL ARKANSAS...
  
CITY           SKY/WX    TMP DP  RH WIND       PRES   REMARKS
LITTLE ROCK    PTCLDY    80  68  66 NW6       30.01R                  
6HR MIN TEMP:  80; 6HR MAX TEMP:  90;                                



SKY/WX REPORTED AS FAIR MEANS FEW OR NO CLOUDS BELOW
12 THOUSAND FEET.


Return to Home page


Western Regional Climate Center, wrcc@dri.edu